Overview Statistics Trail Chart Weather Telemetry Raw packets
 

This is the latest recevied weather packets stored in our database for station/object OE3APM-13. If no packets are shown the sender has not sent any weather packets the latest 10 day(s).

<< 106 107 108 109 110 111 112 >>
Time Temp. Humidity Pressure Rain* Wind** Luminosity Snow
1787815289 19.44° C 69% 1018.9 hPa 0 mm - 471 W/m² -
1787814993 18.89° C 70% 1018.9 hPa 0 mm - 452 W/m² -
1787814689 18.89° C 71% 1018.9 hPa 0 mm - 445 W/m² -
1787814391 18.89° C 71% 1019 hPa 0 mm - 432 W/m² -
1787814089 18.33° C 71% 1019.1 hPa 0 mm - 297 W/m² -
1787813789 18.33° C 71% 1019.2 hPa 0 mm - 283 W/m² -
1787813488 18.33° C 72% 1019.2 hPa 0 mm - 388 W/m² -
1787813183 18.33° C 73% 1019.2 hPa 0 mm - 371 W/m² -
1787812881 17.78° C 73% 1019.4 hPa 0 mm - 357 W/m² -
1787812577 17.78° C 73% 1019.3 hPa 0 mm - 345 W/m² -
1787812275 17.78° C 73% 1019.4 hPa 0 mm - 329 W/m² -
1787811974 17.78° C 74% 1019.5 hPa 0 mm - 316 W/m² -
1787811674 17.22° C 75% 1019.4 hPa 0 mm - 301 W/m² -
1787811377 17.22° C 76% 1019.5 hPa 0 mm - 288 W/m² -
1787811074 16.67° C 77% 1019.4 hPa 0 mm - 271 W/m² -
1787810774 16.67° C 77% 1019.4 hPa 0 mm - 258 W/m² -
1787810474 16.11° C 77% 1019.3 hPa 0 mm - 243 W/m² -
1787810172 16.11° C 78% 1019.3 hPa 0 mm - 230 W/m² -
1787809871 15.56° C 79% 1019.3 hPa 0 mm - 213 W/m² -
1787809571 15.56° C 80% 1019.2 hPa 0 mm - 188 W/m² -
1787809270 15.56° C 80% 1019.2 hPa 0 mm - 141 W/m² -
1787808966 15° C 81% 1019.1 hPa 0 mm - 163 W/m² -
1787808665 15° C 81% 1019 hPa 0 mm - 76 W/m² -
1787808364 15° C 81% 1018.9 hPa 0 mm - 95 W/m² -
1787808063 15° C 80% 1018.9 hPa 0 mm - 42 W/m² -

* Rain latest hour (hover to see other rain measurements)
** Current wind speed in m/s (hover to see current wind gust speed)